Weather History for Salinas, CA

Change the Weather History Date:

Monday, July 22, 2013

  Actual Average Record
Temperature  
Mean Temperature 65 °F 63 °F  
Max Temperature 73 °F 71 °F 91 °F (2006)
Min Temperature 56 °F 55 °F 47 °F (1982)
Degree Days  
Heating Degree Days 0 2  
Month to date heating degree days 53 64  
Since 1 June heating degree days 151 177  
Since 1 July heating degree days 53 64  
Cooling Degree Days 0 1  
Month to date cooling degree days 11 22  
Year to date cooling degree days 45 50  
Since 1 June cooling degree days 35 34  
Growing Degree Days 13 (Base 50)    
Moisture  
Dew Point 55 °F    
Average Humidity 77    
Maximum Humidity 93    
Minimum Humidity 61    
Precipitation  
Precipitation 0.00 in 0.00 in 0.00 in (2014)
Month to date precipitation T 0.00  
Year to date precipitation 2.33 8.72  
Since 1 July precipitation T 0.00  
Sea Level Pressure  
Sea Level Pressure 29.98 in    
Wind  
Wind Speed 5 mph (West)    
Max Wind Speed 17 mph    
Max Gust Speed 21 mph    
Visibility 9 miles    
Events      
T = Trace of Precipitation, MM = Missing Value Source: NWS Daily Summary

Daily Weather History Graph

Daily Weather History Graph

Search for Another Location

Airport:

Trip Planner

Search our weather history database for the weather conditions in past years. The results will help you decide how hot, cold, wet, or windy it might be!

Date:

Astronomy

Jul. 22, 2013 Rise Set
Actual Time 6:04 AM PDT 8:20 PM PDT
Civil Twilight 5:35 AM PDT 8:49 PM PDT
Nautical Twilight 4:59 AM PDT 9:25 PM PDT
Astronomical Twilight 4:20 AM PDT 10:04 PM PDT
Moon 8:13 PM PDT (7/22) 6:05 AM PDT (7/22)
Length of Visible Light 15h 14m
Length of Day
14h 15m
Full, 100% of the Moon is Illuminated
Jul 22
Full
Jul 29
Last Quarter
Aug 6
New
Aug 14
First Quarter
Aug 20
Full

Hourly Weather History & Observations

Time (PDT) Temp. Dew Point Humidity Pressure Visibility Wind Dir Wind Speed Gust Speed Precip Events Conditions
12:53 AM 57.0 °F 54.0 °F 89% 29.96 in 8.0 mi Calm Calm - N/A   Overcast
1:53 AM 55.9 °F 54.0 °F 93% 29.95 in 8.0 mi Calm Calm - N/A   Overcast
2:53 AM 57.0 °F 54.0 °F 89% 29.94 in 8.0 mi West 3.5 mph - N/A   Overcast
3:53 AM 57.0 °F 53.1 °F 87% 29.94 in 9.0 mi NW 4.6 mph - N/A   Overcast
4:53 AM 57.0 °F 54.0 °F 89% 29.96 in 8.0 mi Calm Calm - N/A   Overcast
5:53 AM 57.0 °F 54.0 °F 89% 29.97 in 10.0 mi Calm Calm - N/A   Overcast
6:53 AM 57.0 °F 54.0 °F 89% 29.98 in 10.0 mi WNW 3.5 mph - N/A   Overcast
7:53 AM 59.0 °F 54.0 °F 83% 29.99 in 10.0 mi Calm Calm - N/A   Overcast
8:53 AM 61.0 °F 55.0 °F 81% 29.99 in 10.0 mi WNW 4.6 mph - N/A   Overcast
9:18 AM 60.8 °F 55.4 °F 82% 29.95 in 10.0 mi Calm Calm - N/A   Scattered Clouds
9:53 AM 62.1 °F 55.9 °F 80% 29.98 in 10.0 mi West 3.5 mph - N/A   Clear
10:53 AM 66.0 °F 55.9 °F 70% 29.99 in 10.0 mi Variable 3.5 mph - N/A   Clear
11:53 AM 70.0 °F 57.0 °F 63% 29.98 in 10.0 mi West 5.8 mph - N/A   Clear
12:53 PM 71.1 °F 57.0 °F 61% 29.98 in 10.0 mi West 8.1 mph - N/A   Clear
1:53 PM 68.0 °F 57.0 °F 68% 29.98 in 10.0 mi WNW 12.7 mph - N/A   Clear
2:53 PM 68.0 °F 57.0 °F 68% 29.99 in 10.0 mi WNW 12.7 mph - N/A   Clear
3:53 PM 69.1 °F 57.0 °F 65% 29.97 in 10.0 mi West 13.8 mph - N/A   Clear
4:53 PM 64.9 °F 55.9 °F 73% 29.98 in 9.0 mi West 13.8 mph - N/A   Clear
5:16 PM 62.6 °F 55.4 °F 77% 29.95 in 9.0 mi West 16.1 mph - N/A   Scattered Clouds
5:27 PM 62.6 °F 55.4 °F 77% 29.95 in 9.0 mi West 13.8 mph - N/A   Mostly Cloudy
5:53 PM 62.1 °F 55.9 °F 80% 29.98 in 8.0 mi West 11.5 mph - N/A   Overcast
6:53 PM 61.0 °F 55.9 °F 83% 29.99 in 9.0 mi WNW 9.2 mph - N/A   Overcast
7:53 PM 60.1 °F 55.9 °F 86% 30.00 in 9.0 mi West 8.1 mph - N/A   Overcast
8:53 PM 60.1 °F 55.9 °F 86% 30.00 in 9.0 mi West 6.9 mph - N/A   Overcast
9:25 PM 60.8 °F 55.4 °F 82% 29.98 in 9.0 mi West 5.8 mph - N/A   Scattered Clouds
9:53 PM 60.1 °F 55.9 °F 86% 30.00 in 8.0 mi West 4.6 mph - N/A   Partly Cloudy
10:30 PM 60.8 °F 55.4 °F 82% 29.97 in 8.0 mi West 3.5 mph - 0.00 in   Partly Cloudy
10:53 PM 60.1 °F 55.9 °F 86% 30.00 in 9.0 mi West 3.5 mph - 0.00 in   Clear
11:13 PM 60.8 °F 55.4 °F 82% 29.97 in 9.0 mi WNW 3.5 mph - N/A   Partly Cloudy
11:53 PM 60.1 °F 55.9 °F 86% 30.01 in 8.0 mi West 4.6 mph - N/A   Clear